User: anonymous   Login
Location: ??????
(38.3184°N, 23.6932°E)
Time: 07:46:50
(UTC+00:00)
Language:

Cosmos 1356 - Orbit

View from above orbital plane
View from above orbital plane
View from above satellite
View from above satellite

Ground track
Ground track

The orbit data is extracted from the following two-line orbital elements,

1 13153U 82039A   22023.94331209  .00008509  00000-0  18185-3 0  9993
2 13153  81.0909   3.8423 0003646  55.8999 304.2591 15.44675824178136
Epoch (UTC): 23 January 2022 22:38:22
Eccentricity: 0.0003646
inclination: 81.0909°
perigee height: 430 km
apogee height: 435 km
right ascension of ascending node: 3.8423°
argument of perigee: 55.8999°
revolutions per day: 15.44675824
mean anomaly at epoch: 304.2591°
orbit number at epoch: 17813

The dashed part of the orbit path shows where the satellite is in the earth's shadow,  

DLR